TimeEDT,TemperatureF,Dew PointF,Humidity,Sea Level PressureIn,VisibilityMPH,Wind Direction,Wind SpeedMPH,Gust SpeedMPH,PrecipitationIn,Events,Conditions,WindDirDegrees,DateUTC
12:37 AM,48.2,46.4,93,29.93,4.0,NNW,5.8,-,0.09,Rain,Rain,330,2012-10-06 04:37:00
12:54 AM,48.0,45.0,89,29.91,6.0,North,10.4,-,0.11,Rain,Light Rain,350,2012-10-06 04:54:00
1:01 AM,48.2,44.6,87,29.92,7.0,North,8.1,-,0.01,Rain,Light Rain,350,2012-10-06 05:01:00
1:34 AM,46.4,44.6,93,29.91,8.0,NNW,10.4,19.6,0.01,Rain,Light Rain,340,2012-10-06 05:34:00
1:43 AM,46.4,42.8,87,29.91,7.0,NNW,10.4,18.4,0.02,Rain,Light Rain,340,2012-10-06 05:43:00
1:54 AM,46.0,43.0,89,29.95,5.0,NW,15.0,19.6,0.04,Rain,Light Rain,310,2012-10-06 05:54:00
2:01 AM,46.4,42.8,87,29.96,3.0,NW,11.5,-,0.03,Rain,Rain,320,2012-10-06 06:01:00
2:03 AM,46.4,42.8,87,29.96,2.5,NW,11.5,-,0.04,Rain,Rain,310,2012-10-06 06:03:00
2:11 AM,46.4,42.8,87,29.96,5.0,WNW,12.7,21.9,0.05,Rain,Light Rain,300,2012-10-06 06:11:00
2:27 AM,44.6,42.8,93,29.95,3.0,NW,6.9,-,0.10,Rain,Rain,310,2012-10-06 06:27:00
2:54 AM,45.0,42.1,90,29.95,4.0,NW,8.1,-,0.19,Rain,Light Rain,320,2012-10-06 06:54:00
3:02 AM,44.6,42.8,93,29.95,5.0,NNW,6.9,-,0.01,Rain,Light Rain,330,2012-10-06 07:02:00
3:20 AM,44.6,42.8,93,29.93,8.0,NNW,6.9,-,0.04,Rain,Light Rain,340,2012-10-06 07:20:00
3:50 AM,44.6,42.8,93,29.95,10.0,WNW,5.8,-,0.05,Rain,Light Rain,300,2012-10-06 07:50:00
3:54 AM,45.0,43.0,93,29.95,10.0,NW,6.9,-,0.05,Rain,Light Rain,310,2012-10-06 07:54:00
4:07 AM,44.6,42.8,93,29.94,10.0,NW,8.1,-,N/A,,Overcast,310,2012-10-06 08:07:00
4:36 AM,44.6,42.8,93,29.93,10.0,NNW,6.9,-,N/A,,Overcast,330,2012-10-06 08:36:00
4:54 AM,45.0,43.0,93,29.94,10.0,WNW,5.8,-,N/A,,Overcast,300,2012-10-06 08:54:00
5:02 AM,44.6,42.8,93,29.94,10.0,WNW,6.9,-,N/A,,Overcast,290,2012-10-06 09:02:00
5:29 AM,44.6,42.8,93,29.95,10.0,West,6.9,-,N/A,,Overcast,280,2012-10-06 09:29:00
5:48 AM,44.6,42.8,93,29.96,10.0,WNW,10.4,-,0.00,Rain,Light Rain,290,2012-10-06 09:48:00
5:54 AM,45.0,42.1,90,29.96,10.0,WNW,6.9,-,0.00,,Overcast,290,2012-10-06 09:54:00
6:16 AM,44.6,39.2,81,29.96,10.0,WNW,10.4,-,N/A,,Overcast,290,2012-10-06 10:16:00
6:37 AM,44.6,39.2,81,29.97,10.0,West,9.2,-,N/A,,Overcast,280,2012-10-06 10:37:00
7:54 AM,42.1,39.0,89,29.99,10.0,West,12.7,-,N/A,,Mostly Cloudy,270,2012-10-06 11:54:00
8:11 AM,42.8,39.2,87,29.99,10.0,West,11.5,-,N/A,,Mostly Cloudy,270,2012-10-06 12:11:00
8:54 AM,43.0,39.0,86,30.02,10.0,WSW,11.5,-,N/A,,Mostly Cloudy,250,2012-10-06 12:54:00
9:32 AM,44.6,39.2,81,30.03,10.0,West,11.5,-,N/A,,Scattered Clouds,280,2012-10-06 13:32:00
9:54 AM,44.1,39.0,82,30.04,10.0,WSW,12.7,-,N/A,,Scattered Clouds,250,2012-10-06 13:54:00
10:04 AM,46.4,39.2,76,30.03,10.0,West,9.2,-,N/A,,Mostly Cloudy,260,2012-10-06 14:04:00
10:20 AM,46.4,39.2,76,30.04,10.0,WSW,10.4,-,N/A,,Scattered Clouds,250,2012-10-06 14:20:00
10:54 AM,48.0,39.0,71,30.05,10.0,West,10.4,-,N/A,,Partly Cloudy,280,2012-10-06 14:54:00
11:54 AM,51.1,37.0,59,30.04,10.0,West,13.8,-,N/A,,Mostly Cloudy,270,2012-10-06 15:54:00
12:54 PM,54.0,37.0,53,30.04,10.0,West,13.8,21.9,N/A,,Scattered Clouds,260,2012-10-06 16:54:00
1:54 PM,53.1,34.0,48,30.04,10.0,WSW,19.6,24.2,N/A,,Scattered Clouds,250,2012-10-06 17:54:00
2:54 PM,54.0,34.0,47,30.03,10.0,WNW,15.0,21.9,N/A,,Scattered Clouds,300,2012-10-06 18:54:00
3:54 PM,54.0,33.1,45,30.03,10.0,WNW,12.7,-,N/A,,Scattered Clouds,290,2012-10-06 19:54:00
4:54 PM,52.0,33.1,49,30.04,10.0,West,8.1,16.1,N/A,,Scattered Clouds,280,2012-10-06 20:54:00
5:54 PM,51.1,32.0,48,30.05,10.0,WNW,9.2,-,N/A,,Scattered Clouds,290,2012-10-06 21:54:00
6:54 PM,48.2,32.0,54,30.06,10.0,NW,4.6,-,N/A,,Partly Cloudy,310,2012-10-06 22:54:00
7:54 PM,48.0,33.1,56,30.09,10.0,NW,8.1,-,N/A,,Mostly Cloudy,310,2012-10-06 23:54:00
8:54 PM,46.9,32.0,56,30.10,10.0,NW,6.9,-,N/A,,Clear,310,2012-10-07 00:54:00
9:54 PM,45.0,33.1,63,30.11,10.0,WNW,5.8,-,N/A,,Clear,300,2012-10-07 01:54:00
10:54 PM,44.1,34.0,68,30.12,10.0,WNW,4.6,-,N/A,,Clear,290,2012-10-07 02:54:00
11:54 PM,43.0,34.0,71,30.11,10.0,SSW,3.5,-,N/A,,Scattered Clouds,210,2012-10-07 03:54:00